2022/12/22 00:00:00,25.3, 2.8
2022/12/22 00:10:00,25.1, 3.3
2022/12/22 00:20:00,25.0, 3.0
2022/12/22 00:30:00,24.9, 2.8
2022/12/22 00:40:00,24.8, 2.7
2022/12/22 00:50:00,24.7, 3.3
2022/12/22 01:00:00,24.6, 2.9
2022/12/22 01:10:00,24.5, 2.9
2022/12/22 01:20:00,24.4, 2.7
2022/12/22 01:30:00,24.4, 2.6
2022/12/22 01:40:00,24.3, 2.6
2022/12/22 01:50:00,24.2, 2.7
2022/12/22 02:00:00,24.1, 2.6
2022/12/22 02:10:00,24.1, 2.7
2022/12/22 02:20:00,24.0, 2.7
2022/12/22 02:30:00,23.9, 2.7
2022/12/22 02:40:00,23.8, 2.8
2022/12/22 02:50:00,23.7, 2.5
2022/12/22 03:00:00,23.5, 2.7
2022/12/22 03:10:00,23.4, 2.6
2022/12/22 03:20:00,23.6, 2.6
2022/12/22 03:30:00,23.5, 2.5
2022/12/22 03:40:00,23.3, 2.9
2022/12/22 03:50:00,23.0, 2.4
2022/12/22 04:00:00,22.8, 2.4
2022/12/22 04:10:00,22.7, 2.3
2022/12/22 04:20:00,22.7, 2.1
2022/12/22 04:30:00,22.5, 2.2
2022/12/22 04:40:00,22.4, 2.3
2022/12/22 04:50:00,22.3, 2.3
2022/12/22 05:00:00,22.2, 2.1
2022/12/22 05:10:00,22.0, 2.3
2022/12/22 05:20:00,21.7, 2.2
2022/12/22 05:30:00,21.6, 2.2
2022/12/22 05:40:00,21.4, 2.2
2022/12/22 05:50:00,21.4, 2.2
2022/12/22 06:00:00,21.5, 2.5
2022/12/22 06:10:00,21.4, 2.2
2022/12/22 06:20:00,21.5, 2.2
2022/12/22 06:30:00,21.6, 2.2
2022/12/22 06:40:00,21.2, 2.1
2022/12/22 06:50:00,21.0, 2.2
2022/12/22 07:00:00,21.0, 2.0
2022/12/22 07:10:00,20.8, 2.1
2022/12/22 07:20:00,20.7, 2.2
2022/12/22 07:30:00,20.6, 2.2
2022/12/22 07:40:00,20.4, 2.1
2022/12/22 07:50:00,20.4, 1.9
2022/12/22 08:00:00,20.3, 2.1
2022/12/22 08:10:00,20.2, 1.9
2022/12/22 08:20:00,20.3, 1.4
2022/12/22 08:30:00,20.1, 1.6
2022/12/22 08:40:00,19.8, 1.2
2022/12/22 08:50:00,19.6, 1.3
2022/12/22 09:00:00,19.6, 1.6
2022/12/22 09:10:00,19.5, 1.3
2022/12/22 09:20:00,19.4, 1.2
2022/12/22 09:30:00,19.1, 1.3
2022/12/22 09:40:00,19.6, 1.0
2022/12/22 09:50:00,20.0, 1.1
2022/12/22 10:00:00,19.7, 1.1
2022/12/22 10:10:00,19.9, 1.0
2022/12/22 10:20:00,20.0, 0.9
2022/12/22 10:30:00,19.8, 0.8
2022/12/22 10:40:00,19.5, 0.8
2022/12/22 10:50:00,19.3, 1.0
2022/12/22 11:00:00,19.0, 1.1
2022/12/22 11:10:00,18.9, 1.5
2022/12/22 11:20:00,18.7, 1.2
2022/12/22 11:30:00,18.6, 1.1
2022/12/22 11:40:00,19.4, 1.1
2022/12/22 11:50:00,19.7, 1.1
2022/12/22 12:00:00,19.4, 1.5
2022/12/22 12:10:00,19.2, 1.7
2022/12/22 12:20:00,19.1, 1.3
2022/12/22 12:30:00,22.0, 0.3
2022/12/22 12:40:00,23.2, 0.4
2022/12/22 12:50:00,23.6, 0.3
2022/12/22 13:00:00,24.2, 0.2
2022/12/22 13:10:00,24.5, 0.6
2022/12/22 13:20:00,24.5, 0.8
2022/12/22 13:30:00,24.6, 0.5
2022/12/22 13:40:00,24.8, 0.5
2022/12/22 13:50:00,24.7, 0.5
2022/12/22 14:00:00,24.6, 0.5
2022/12/22 14:10:00,24.6, 1.0
2022/12/22 14:20:00,24.5, 0.6
2022/12/22 14:30:00,24.5, 0.3
2022/12/22 14:40:00,24.5, 0.4
2022/12/22 14:50:00,24.5, 0.3
2022/12/22 15:00:00,24.4,-0.0
2022/12/22 15:10:00,24.4,-0.2
2022/12/22 15:20:00,24.4,-0.3
2022/12/22 15:30:00,24.3,-0.4
2022/12/22 15:40:00,24.4,-0.4
2022/12/22 15:50:00,24.3,-0.4
2022/12/22 16:00:00,24.2,-0.7
2022/12/22 16:10:00,24.2,-0.5
2022/12/22 16:20:00,25.3,-0.7
2022/12/22 16:30:00,26.7,-0.9
2022/12/22 16:40:00,27.7,-0.9
2022/12/22 16:50:00,28.7,-1.0
2022/12/22 17:00:00,30.0,-1.3
2022/12/22 17:10:00,30.7,-1.2
2022/12/22 17:20:00,31.3,-1.2
2022/12/22 17:30:00,31.3,-1.6
2022/12/22 17:40:00,31.6,-1.4
2022/12/22 17:50:00,31.8,-1.3
2022/12/22 18:00:00,32.0,-1.6
2022/12/22 18:10:00,32.3,-1.4
2022/12/22 18:20:00,32.5,-1.5
2022/12/22 18:30:00,32.6,-1.7
2022/12/22 18:40:00,32.7,-1.3
2022/12/22 18:50:00,32.9,-2.2
2022/12/22 19:00:00,33.5,-2.4
2022/12/22 19:10:00,33.9,-2.1
2022/12/22 19:20:00,34.1,-2.2
2022/12/22 19:30:00,34.4,-2.2
2022/12/22 19:40:00,34.7,-2.4
2022/12/22 19:50:00,34.8,-2.2
2022/12/22 20:00:00,35.0,-2.5
2022/12/22 20:10:00,35.0,-2.2
2022/12/22 20:20:00,35.6,-2.5
2022/12/22 20:30:00,35.9,-2.5
2022/12/22 20:40:00,36.4,-2.6
2022/12/22 20:50:00,37.0,-2.8
2022/12/22 21:00:00,37.5,-2.6
2022/12/22 21:10:00,38.0,-3.0
2022/12/22 21:20:00,38.4,-3.0
2022/12/22 21:30:00,39.1,-2.9
2022/12/22 21:40:00,39.4,-3.1
2022/12/22 21:50:00,39.5,-3.1
2022/12/22 22:00:00,39.6,-3.4
2022/12/22 22:10:00,40.0,-3.2
2022/12/22 22:20:00,39.9,-3.4
2022/12/22 22:30:00,40.0,-3.8
2022/12/22 22:40:00,40.2,-3.6
2022/12/22 22:50:00,40.2,-4.0
2022/12/22 23:00:00,40.2,-3.7
2022/12/22 23:10:00,40.4,-4.1
2022/12/22 23:20:00,40.7,-4.1
2022/12/22 23:30:00,40.8,-4.5
2022/12/22 23:40:00,40.9,-4.4
2022/12/22 23:50:00,40.9,-4.8
